Bartow, Florida, United States (33830)
Lat: 27.90N, Lon: 81.84W
Wx Zone: FLZ052
Local Info
Past Weather Observations for Saturday, May 23, 2015

NOTE: This archive is for the closest National Weather Service station to Bartow. Information may differ from the station used for current weather conditions.

Click here for Long-term Archive

Time Weather Temperature Dewpoint Humidity Pressure Winds Precip Visibility
23:55
Clear
75°F / 24°C 73°F / 23°C 94% 30.21 in
(1023 mb)
E 6.9 mph
(E 11 kph)
- 10SM
23:35
Clear
75°F / 24°C 73°F / 23°C 94% 30.21 in
(1023 mb)
E 8.1 mph
(E 13 kph)
- 10SM
23:15
Clear
75°F / 24°C 73°F / 23°C 94% 30.21 in
(1023 mb)
E 9.2 mph
(E 15 kph)
- 10SM
22:55
Partly Cloudy
75°F / 24°C 73°F / 23°C 94% 30.21 in
(1023 mb)
ENE 9.2 mph
(ENE 15 kph)
- 10SM
22:35
Partly Cloudy
75°F / 24°C 72°F / 22°C 89% 30.21 in
(1023 mb)
ENE 8.1 mph
(ENE 13 kph)
- 10SM
22:15
Clear
75°F / 24°C 72°F / 22°C 89% 30.21 in
(1023 mb)
ENE 8.1 mph
(ENE 13 kph)
- 10SM
21:55
Clear
77°F / 25°C 72°F / 22°C 83% 30.21 in
(1023 mb)
ENE 10.4 mph
(ENE 17 kph)
- 10SM
21:35
Clear
77°F / 25°C 72°F / 22°C 83% 30.21 in
(1023 mb)
ENE 10.4 mph
(ENE 17 kph)
- 10SM
21:15
Clear
77°F / 25°C 72°F / 22°C 83% 30.21 in
(1023 mb)
ENE 8.1 mph
(ENE 13 kph)
- 10SM
20:55
Clear
79°F / 26°C 70°F / 21°C 74% 30.21 in
(1023 mb)
ENE 8.1 mph
(ENE 13 kph)
- 10SM
20:35
Clear
79°F / 26°C 70°F / 21°C 74% 30.21 in
(1023 mb)
E 6.9 mph
(E 11 kph)
- 10SM
20:15
Clear
79°F / 26°C 68°F / 20°C 70% 30.21 in
(1023 mb)
E 6.9 mph
(E 11 kph)
- 10SM
19:55
Clear
79°F / 26°C 66°F / 19°C 65% 30.18 in
(1022 mb)
E 10.4 mph
(E 17 kph)
- 10SM
19:35
Clear
81°F / 27°C 66°F / 19°C 62% 30.18 in
(1022 mb)
E 8.1 mph
(E 13 kph)
- 10SM
19:15
Clear
81°F / 27°C 66°F / 19°C 62% 30.18 in
(1022 mb)
E 8.1 mph
(E 13 kph)
- 10SM
18:55
Clear
82°F / 28°C 64°F / 18°C 55% 30.18 in
(1022 mb)
E 10.4 mph
(E 17 kph)
- 10SM
18:35
Clear
82°F / 28°C 64°F / 18°C 55% 30.18 in
(1022 mb)
E 10.4 mph
(E 17 kph)
- 10SM
18:15
Clear
84°F / 29°C 63°F / 17°C 48% 30.18 in
(1022 mb)
E 12.7 mph
(E 20 kph)
- 10SM
17:55
Clear
84°F / 29°C 64°F / 18°C 51% 30.18 in
(1022 mb)
ENE 6.9 mph
(ENE 11 kph)
- 10SM
17:35
Clear
86°F / 30°C 64°F / 18°C 49% 30.18 in
(1022 mb)
E 10.4 mph
(E 17 kph)
- 10SM
17:15
Clear
86°F / 30°C 64°F / 18°C 49% 30.18 in
(1022 mb)
ENE 10.4 mph
(ENE 17 kph)
- 10SM
16:55
Partly Cloudy
86°F / 30°C 66°F / 19°C 52% 30.18 in
(1022 mb)
NE 10.4 mph
(NE 17 kph)
- 10SM
16:35
Clear
88°F / 31°C 66°F / 19°C 49% 30.18 in
(1022 mb)
ENE 9.2 mph
(ENE 15 kph)
- 10SM
15:47
Mostly Cloudy
91°F / 33°C 66°F / 19°C 44% 30.18 in
(1022 mb)
E 13.8 mph
(E 22 kph)
- 10SM
14:47
Mostly Cloudy
90°F / 32°C 66°F / 19°C 46% 30.18 in
(1022 mb)
ENE 8.1 mph
(ENE 13 kph)
- 10SM
13:47
Partly Cloudy
90°F / 32°C 66°F / 19°C 46% 30.21 in
(1023 mb)
ENE 8.1 mph
(ENE 13 kph)
- 10SM
12:47
Partly Cloudy
88°F / 31°C 64°F / 18°C 46% 30.21 in
(1023 mb)
NE 9.2 mph
(NE 15 kph)
- 10SM
11:47
Partly Cloudy
88°F / 31°C 63°F / 17°C 43% 30.24 in
(1024 mb)
ENE 10.4 mph
(ENE 17 kph)
- 10SM
10:47
Partly Cloudy
86°F / 30°C 61°F / 16°C 43% 30.24 in
(1024 mb)
ENE 9.2 mph
(ENE 15 kph)
- 10SM
09:47
Clear
82°F / 28°C 63°F / 17°C 51% 30.24 in
(1024 mb)
ENE 8.1 mph
(ENE 13 kph)
- 10SM
08:47
Clear
79°F / 26°C 70°F / 21°C 74% 30.24 in
(1024 mb)
NE 8.1 mph
(NE 13 kph)
- 10SM
07:50
Partly Cloudy
75°F / 24°C 73°F / 23°C 94% 30.24 in
(1024 mb)
NE 9.2 mph
(NE 15 kph)
- 10SM
06:50
Clear
73°F / 23°C 73°F / 23°C 100% 30.21 in
(1023 mb)
NE 9.2 mph
(NE 15 kph)
- 10SM
06:15
Clear
72°F / 22°C 72°F / 22°C 100% 30.21 in
(1023 mb)
NE 3.5 mph
(NE 6 kph)
- 10SM
05:55
Clear
72°F / 22°C 72°F / 22°C 100% 30.18 in
(1022 mb)
NE 4.6 mph
(NE 7 kph)
- 10SM
05:35
Clear
72°F / 22°C 72°F / 22°C 100% 30.18 in
(1022 mb)
NE 4.6 mph
(NE 7 kph)
- 10SM
05:15
Clear
72°F / 22°C 72°F / 22°C 100% 30.18 in
(1022 mb)
NE 5.8 mph
(NE 9 kph)
- 10SM
04:55
Partly Cloudy
72°F / 22°C 72°F / 22°C 100% 30.18 in
(1022 mb)
NE 5.8 mph
(NE 9 kph)
- 10SM
04:35
Clear
72°F / 22°C 72°F / 22°C 100% 30.18 in
(1022 mb)
NE 6.9 mph
(NE 11 kph)
- 10SM
04:15
Clear
72°F / 22°C 72°F / 22°C 100% 30.15 in
(1021 mb)
NE 4.6 mph
(NE 7 kph)
- 10SM
03:55
Clear
72°F / 22°C 72°F / 22°C 100% 30.15 in
(1021 mb)
NE 5.8 mph
(NE 9 kph)
- 10SM
03:35
Clear
72°F / 22°C 72°F / 22°C 100% 30.15 in
(1021 mb)
NE 5.8 mph
(NE 9 kph)
- 10SM
03:15
Clear
72°F / 22°C 72°F / 22°C 100% 30.15 in
(1021 mb)
NE 4.6 mph
(NE 7 kph)
- 10SM
02:55
Clear
72°F / 22°C N/A N/A 30.15 in
(1021 mb)
NE 4.6 mph
(NE 7 kph)
- 10SM
02:35
Clear
72°F / 22°C N/A N/A 30.15 in
(1021 mb)
NE 3.5 mph
(NE 6 kph)
- 10SM
02:15
Clear
72°F / 22°C N/A N/A 30.15 in
(1021 mb)
ENE 3.5 mph
(ENE 6 kph)
- 10SM
01:55
Clear
72°F / 22°C N/A N/A 30.15 in
(1021 mb)
ENE 5.8 mph
(ENE 9 kph)
- 10SM
01:35
Clear
72°F / 22°C N/A N/A 30.15 in
(1021 mb)
NE 5.8 mph
(NE 9 kph)
- 10SM
01:15
Clear
72°F / 22°C N/A N/A 30.18 in
(1022 mb)
NE 5.8 mph
(NE 9 kph)
- 10SM
00:55
Clear
72°F / 22°C N/A N/A 30.18 in
(1022 mb)
Calm - 10SM
00:35
Clear
72°F / 22°C N/A N/A 30.18 in
(1022 mb)
Calm - 10SM
00:15
Clear
72°F / 22°C N/A N/A 30.18 in
(1022 mb)
NE 4.6 mph
(NE 7 kph)
- 10SM
Time Weather Temperature Dewpoint Humidity Pressure Winds Precip Visibility


Weather for websites

WeatherForYou.com, LLC is not responsible for any damages or problems caused by this service. Current weather conditions are obtained from the closest station including government and personal stations which may have varying degrees of accuracy. Weather forecasts are derived from the NOAA NDFD. Like all things, this site belongs to Jesus Christ... He just trusts us to maintain it. If you have any questions or comments email webmaster@weatherforyou.com

Copyright © 2015, WeatherForYou.com LLC. All rights reserved.